Les destinations

Voici quelques informations relatives aux aéroports fréquentés par Air Tahiti Nui Virtual : codes, pistes, METAR en cours etc.

Vous trouverez les aéroports des destinations :

Réelles : rotations effectuées à ce jour par Air Tahiti Nui
Code share : purement fictives et calquées sur les destinations assurées depuis Tahiti par d'autres compagnies (Air Calin, LAN et Hawaiin Airlines)
Historiques : anciennes destinations assurées par Air Tahiti Nui jusqu'en 2008

REELLES Aéroport Codes
OACI / IATA
Piste(s)
N° - Dim (m)
Elévation
(ft / m)
METAR
(source NOAA)
Tahiti Faa'a NTAA / PPT 04 / 22 - 3450 x 45 6 / 2 2017/11/23 08:30
NTAA 230830Z 09009KT 060V120 9999 VCSH SCT020 SCT040 26/22 Q1012 NOSIG
Auckland NZAA / AKL 05R / 23L - 3535 x 45 23 / 7 2017/11/23 08:30
NZAA 230830Z AUTO 21006KT 9999 NCD 17/15 Q1027 NOSIG
Tokyo Narita RJAA / NRT 16R / 34L - 4000 x 60
16L / 34R - 2500 x 60
135 / 45 2017/11/23 08:30
RJAA 230830Z 19003KT 9000 R34L/P1800N R34R/P1800N MIFG FEW010 BKN070 10/09 Q1004 BECMG TL0930 32010KT RMK 1CU010 6AC070 A2966
Los Angeles KLAX / LAX 07L / 25R - 3685 x 46
07R / 25L - 3135 x 46
06L / 24R - 2721 x 46
06R / 24L - 3135 x 46
127 / 42 2017/11/23 08:53
KLAX 230853Z 02003KT 10SM CLR 25/04 A3001 RMK AO2 SLP159 T02500044 58007
Paris Charles De Gaule LFPG / CDG 08L / 26R - 4215 x 45
08R / 26L - 2700 x 60
09L / 27R - 2700 x 60
09R / 27L - 4200 x 45
392 / 130 2017/11/23 08:30
LFPG 230830Z 21020KT 9999 BKN025 SCT093 14/09 Q1003 NOSIG



CODE-SHARE Aéroport Codes
OACI / IATA
Piste(s)
N° - Dim (m)
Elévation
(ft / m)
METAR
(source NOAA)
Hanga Roa SCIP / IPC 10 / 28 - 3303 x 45 227 / 75 2017/11/23 09:00
SCIP 230900Z 11015KT 9999 BKN020 19/16 Q1025 NOSIG
Nouméa La Tontouta NWWW / NOU 11 / 29 - 3250 x 45 12 / 4 2017/11/23 09:00
NWWW 230900Z AUTO 07004KT 010V120 9999 OVC043 26/18 Q1013 NOSIG
Honolulu PHNL / HNL 08L / 26R - 3753 x 46
08R / 26L - 3658 x 61
04L / 22R - 2119 x 46
04R / 22L - 2743 x 46
13 / 4 2017/11/23 08:53
PHNL 230853Z 03010G17KT 10SM FEW034 FEW048 24/15 A3008 RMK AO2 SLP186 60000 T02390150 50004



HISTORIQUES Aéroport Codes
OACI / IATA
Piste(s)
N° - Dim (m)
Elévation
(ft / m)
METAR (source NOAA)
Sydney Kingsford YSSY / SYD 16R / 34L - 3962 x 45
16L / 34R - 2438 x 45
07 / 25 - 2530 x 45
21 / 7 2017/11/23 08:30
YSSY 230830Z 03016KT 9999 FEW030 BKN300 FEW045CB 23/16 Q1015 NOSIG
New York J.F. Kennedy KJFK / JFK 13R / 31L - 4423 x 61
13L / 31R - 3048 x 46
04R / 22L - 2560 x 61
04L / 22R - 3682 x 61
12 / 4 2017/11/23 08:51
KJFK 230851Z 33011G19KT 10SM CLR 00/M07 A3009 RMK AO2 SLP190 T00001067 50004